Simultaneous Nadir Overpasses (SNOs) Predictions

Prediction of SNOs between GOES-16 and NPP Satellite Orbit:

Table of predicted SNOs for the next 14.0 days since TLE Epoch: 11/23/2024
Index Date Time (GOES-16) GOES-16 Lat,Lon NPP Lat,Lon Distance(km) Time Diff (sec)
1 11/23/2024 18:16:16 -0.01, -75.22 0.59, -72.61 297.82 80
2 11/25/2024 06:38:08 0.00, -75.21 0.61, -77.89 304.70 80
3 11/26/2024 06:16:46 0.00, -75.23 -0.43, -73.37 211.79 80
4 11/27/2024 18:38:46 -0.00, -75.26 -0.78, -78.69 390.72 80
5 11/28/2024 18:22:45 -0.01, -75.28 0.26, -74.17 126.21 80
6 11/30/2024 06:44:36 0.00, -75.28 0.93, -79.45 475.07 80
7 12/01/2024 06:23:14 0.01, -75.30 -0.06, -74.93 41.73 80
8 12/03/2024 18:26:33 -0.00, -75.35 -0.08, -75.73 43.68 80
9 12/04/2024 18:10:30 -0.00, -75.36 0.91, -71.21 473.47 80
10 12/06/2024 06:32:21 -0.00, -75.38 0.25, -76.49 126.96 80
